CZ-4B R/B, 44888

Orbit data source: Space-Track

CZ-4B R/B, 44888 is space debris in SSO originally from a launch on Fri, 20 Dec 2019 UTC launched from the Taiyaun Space Center, China (TSC). Debris objects in space refer to the collection of defunct objects orbiting the Earth. Examples of debris include non-operational satellites, rocket bodies, and fragments generated from explosions, collisions, or faulty payload assembly.

Loading next visibility...
Identifier
44888, 2019-093K
Orbit
SSO
Country
Flag of CNCN / PRC
Related business
Manufacturer
SAST
Mission
Spacecraft
Bus & Motor
CZ-4 STAGE 3, Unknown motor
Mass
~1,000 kg wet, ~1,000 kg dry
Launch date (UTC)
2019-12-20 (6 years ago)
Launch vehicle
Unknown
Launch site
Taiyaun Space Center, China (TSC)
Object type
Payload
Rocket body
Debris
Shape & HBR
Cyl, 2.5 m
Radar Cross Section
14.536 m², Large (>1 m²)

Expand to show TLE details & history
Last TLE update: 19 hours ago

TLE from 19 hours ago
0 CZ-4B R/B
1 44888U 19093K   25261.06288652  .00054265  00000-0  50318-3 0  9999
2 44888  97.9388 112.5507 0037162 300.5951  59.1643 15.66401417319412
Epoch: 2025-09-18T01:30Z
TLE epoch observation values (Epoch: 2025-09-18T01:30:33.395Z)
Latitude
-0.00009°
Longitude
92.6817°
Altitude
359.562 km
Speed
7.701 km/s
True Right ascension
07h 30m 12s
True Declination
0° 00' 00"
Sunlit
Object was in daylight at epoch
Visualization orbit readout
Latitude
Unknown
Longitude
Unknown
Altitude
Unknown
Speed
Unknown
Apparent Right ascension
Unknown
Apparent Declination
Unknown
Sunlit
N/A
Visualization observer readout
Local Sidereal Time
13:43:11
Azimuth
Unknown
Elevation
Unknown
Doppler factor
Unknown
Orbital elements
Apogee altitude
391.203 km
Perigee altitude
341.077 km
Semi-major axis
6,744.277 km
Eccentricity
0.00372
Inclination
97.9388°
RAAN
112.5507°
Arg. of periapsis
300.5951°
True anomaly
59.53082°
Mean anomaly
59.1643°
Eccentric anomaly
59.34747°
Mean motion
3.91868 °/min
Orbital period
91.87 mins
BSTAR
0.00050318
Loading maneuver chart data...
Computing Atmospheric mass density...
Loading historical data...
Loading historical data...
Loading historical data...
Loading historical data...
Loading historical data...
Loading historical data...
Loading historical data...

Documentation

Showing up to 5 results
|